When you browse on this site, cookies collect data to enhance your experience and personalize the content and advertising you see.
Visit our Privacy Policy to learn more. By continuing to use the site, you agree to this use of cookies and data.
  • In Austria
  • List of Countries
  • For 7 days
  • Water Temperature
  • Satellite Maps
  • Weather Map
  • News
  • Weather Widgets
  • user-avatar
    Login

    Hourly Weather Rivnya

    Today, 25 April, Thursday

    Time Temperature Precipitation Wind Pressure Humidity
    00:00 +10°C° 0 mm 2 mps 703 mmHg 89%
    01:00 +10°C° 0 mm 2 mps 702 mmHg 89%
    02:00 +8°C° 0 mm 1 mps 701 mmHg 93%
    03:00 +9°C° 0 mm 1 mps 701 mmHg 91%
    04:00 +9°C° 0 mm 1 mps 701 mmHg 84%
    05:00 +9°C° 0 mm 1 mps 701 mmHg 82%
    06:00 +8°C° 0 mm 2 mps 701 mmHg 83%
    07:00 +9°C° 0 mm 1 mps 701 mmHg 89%
    08:00 +12°C° 0 mm 1 mps 702 mmHg 93%
    09:00 +14°C° 0 mm 1 mps 702 mmHg 89%
    10:00 +16°C° 0 mm 1 mps 703 mmHg 88%
    11:00 +19°C° 0 mm 1 mps 703 mmHg 83%
    12:00 +19°C° 0 mm 1 mps 704 mmHg 80%
    13:00 +18°C° 0 mm 3 mps 703 mmHg 88%
    14:00 +15°C° 0.1 mm 5 mps 703 mmHg 97%
    15:00 +15°C° 0.1 mm 4 mps 703 mmHg 97%
    16:00 +15°C° 0.4 mm 4 mps 703 mmHg 98%
    17:00 +14°C° 1 mm 4 mps 703 mmHg 100%
    18:00 +14°C° 0.2 mm 3 mps 702 mmHg 100%
    19:00 +14°C° 0 mm 2 mps 702 mmHg 98%
    20:00 +13°C° 0 mm 2 mps 702 mmHg 100%
    21:00 +13°C° 0 mm 2 mps 702 mmHg 98%
    22:00 +13°C° 0 mm 1 mps 701 mmHg 95%
    23:00 +13°C° 0 mm 1 mps 701 mmHg 95%

    Tomorrow, 26 April, Friday

    Time Temperature Precipitation Wind Pressure Humidity
    00:00 +13°C° 0 mm 1 mps 701 mmHg 92%
    01:00 +13°C° 0 mm 2 mps 701 mmHg 88%
    02:00 +13°C° 0 mm 2 mps 701 mmHg 85%
    03:00 +13°C° 0 mm 2 mps 701 mmHg 88%
    04:00 +12°C° 0 mm 2 mps 701 mmHg 92%
    05:00 +12°C° 0 mm 2 mps 701 mmHg 95%
    06:00 +10°C° 0 mm 2 mps 701 mmHg 96%
    07:00 +12°C° 0 mm 1 mps 701 mmHg 96%
    08:00 +13°C° 0 mm 1 mps 701 mmHg 100%
    09:00 +15°C° 0 mm 1 mps 701 mmHg 96%
    10:00 +18°C° 0 mm 1 mps 702 mmHg 92%
    11:00 +18°C° 0 mm 3 mps 702 mmHg 83%
    12:00 +19°C° 0 mm 2 mps 702 mmHg 80%
    13:00 +20°C° 0 mm 2 mps 702 mmHg 80%
    14:00 +19°C° 0.3 mm 2 mps 701 mmHg 85%
    15:00 +18°C° 0.4 mm 3 mps 701 mmHg 91%
    16:00 +15°C° 0.3 mm 6 mps 701 mmHg 100%
    17:00 +15°C° 0 mm 4 mps 700 mmHg 96%
    18:00 +15°C° 0 mm 4 mps 700 mmHg 93%
    19:00 +16°C° 0 mm 1 mps 700 mmHg 92%
    20:00 +16°C° 0 mm 1 mps 699 mmHg 87%
    21:00 +16°C° 0 mm 1 mps 699 mmHg 86%
    22:00 +15°C° 0 mm 1 mps 699 mmHg 86%
    23:00 +15°C° 0 mm 2 mps 699 mmHg 86%

    Day after tomorrow, 27 April, Saturday

    Time Temperature Precipitation Wind Pressure Humidity
    00:00 +14°C° 0 mm 2 mps 698 mmHg 88%
    01:00 +14°C° 0 mm 2 mps 698 mmHg 94%
    02:00 +13°C° 0 mm 2 mps 698 mmHg 97%
    03:00 +12°C° 0 mm 2 mps 697 mmHg 100%
    04:00 +12°C° 0 mm 2 mps 697 mmHg 100%
    05:00 +12°C° 0 mm 2 mps 696 mmHg 99%
    06:00 +12°C° 0 mm 2 mps 696 mmHg 98%
    07:00 +13°C° 0 mm 2 mps 696 mmHg 100%
    08:00 +14°C° 0 mm 1 mps 696 mmHg 100%
    09:00 +16°C° 0 mm 2 mps 697 mmHg 97%
    10:00 +18°C° 0 mm 2 mps 697 mmHg 92%
    11:00 +19°C° 0 mm 2 mps 697 mmHg 87%
    12:00 +20°C° 0 mm 2 mps 697 mmHg 81%
    13:00 +21°C° 0 mm 3 mps 696 mmHg 75%
    14:00 +22°C° 0 mm 3 mps 695 mmHg 73%
    15:00 +21°C° 0 mm 5 mps 695 mmHg 79%
    16:00 +20°C° 0 mm 5 mps 694 mmHg 81%
    17:00 +19°C° 0 mm 4 mps 693 mmHg 86%
    18:00 +19°C° 0 mm 3 mps 693 mmHg 86%
    19:00 +18°C° 0 mm 3 mps 693 mmHg 89%
    20:00 +17°C° 0 mm 2 mps 693 mmHg 89%
    21:00 +16°C° 0 mm 3 mps 693 mmHg 93%
    22:00 +14°C° 0 mm 2 mps 692 mmHg 95%
    23:00 +14°C° 0 mm 1 mps 692 mmHg 93%

    28 April, Sunday

    Time Temperature Precipitation Wind Pressure Humidity
    00:00 +13°C° 0 mm 0 mps 692 mmHg 93%
    01:00 +13°C° 0.1 mm 1 mps 692 mmHg 100%
    02:00 +12°C° 0 mm 1 mps 691 mmHg 100%
    03:00 +11°C° 0 mm 4 mps 691 mmHg 100%
    04:00 +9°C° 10.9 mm 5 mps 691 mmHg 100%
    05:00 +10°C° 2.8 mm 3 mps 691 mmHg 100%
    06:00 +10°C° 2.1 mm 3 mps 691 mmHg 100%
    07:00 +10°C° 0.3 mm 2 mps 692 mmHg 100%
    08:00 +12°C° 0 mm 2 mps 692 mmHg 100%
    09:00 +12°C° 0 mm 3 mps 692 mmHg 94%
    10:00 +14°C° 0 mm 2 mps 693 mmHg 89%
    11:00 +14°C° 0.3 mm 2 mps 693 mmHg 96%
    12:00 +13°C° 0.8 mm 3 mps 693 mmHg 100%
    13:00 +14°C° 2.3 mm 1 mps 693 mmHg 100%
    14:00 +12°C° 6.1 mm 3 mps 693 mmHg 100%
    15:00 +11°C° 12.2 mm 3 mps 693 mmHg 100%
    16:00 +11°C° 4.4 mm 4 mps 693 mmHg 100%
    17:00 +11°C° 0.4 mm 3 mps 693 mmHg 100%
    18:00 +11°C° 0.6 mm 1 mps 693 mmHg 100%
    19:00 +11°C° 0 mm 1 mps 693 mmHg 100%
    20:00 +10°C° 0 mm 0 mps 693 mmHg 100%
    21:00 +10°C° 0 mm 0 mps 694 mmHg 100%
    22:00 +10°C° 0 mm 0 mps 694 mmHg 100%
    23:00 +10°C° 0 mm 0 mps 694 mmHg 100%

    29 April, Monday

    Time Temperature Precipitation Wind Pressure Humidity
    00:00 +10°C° 0 mm 0 mps 694 mmHg 100%
    01:00 +11°C° 0 mm 1 mps 694 mmHg 100%
    02:00 +10°C° 0 mm 1 mps 694 mmHg 100%

    30 April, Tuesday

    Time Temperature Precipitation Wind Pressure Humidity
    Show more